[[{"header":{"parameterUnit":"m.s-1","parameterCategory":2,"la1":30.2991,"la2":30.254,"lo1":-89.0895,"lo2":-89.0444,"dy":0.0017,"dx":0.0017,"nx":28,"ny":28,"refTime":"2024-04-25T09:00:00:Z","depth":"0","parameterNumber":2,"parameterNumberName":"U-component_of_CURRENTS"},"data":[0,0,0,0,0,0,0,0,0,0,0,0,0,0,0,0,0,0,0,0,0,0,0,0,0,0,0,0,0,0,0,0,0,0,0,0,0,0,0,0,0,0,0,0,0,0,0,0,0,0,0,0,0,0,0,0,0,0,0.2515,0.2515,0,0.2506,0.2506,0.2505,0.2479,0.2479,0.2478,0.2478,0.2461,0.2461,0.2461,0,0,0,0,0,0,0,0,0,0,0,0,0,0.2528,0.2528,0.2515,0.2515,0.2515,0.2506,0.2506,0.2505,0.2479,0.2479,0.2478,0.2478,0.2461,0.2461,0.2461,0,0,0,0,0,0,0,0,0,0,0,0,0,0.2519,0.2528,0.2515,0.2502,0.2501,0.2506,0.2506,0.2505,0.2479,0.2479,0.2478,0.2477,0.2461,0.2461,0.2461,0.2473,0,0,0.2461,0.2461,0,0,0,0,0,0,0,0,0.252,0.2519,0.2504,0.2503,0.2502,0.2495,0.2504,0.2495,0.2479,0.2486,0.2478,0.2477,0.2473,0.2472,0.2469,0.2472,0.2471,0.2461,0.2461,0.2461,0.246,0,0,0,0,0,0,0,0.2521,0.2519,0.251,0.2504,0.2503,0.2504,0.2501,0.2502,0.2482,0.2485,0.2484,0.2486,0.2472,0.2469,0.2469,0.2471,0.2461,0.2461,0.246,0.246,0.2522,0.2524,0,0,0,0,0,0,0.2525,0.252,0.251,0.251,0.2512,0.2504,0.2501,0.2496,0.2482,0.2479,0.2486,0.2485,0.247,0.2469,0.2468,0.2508,0.2461,0.246,0.246,0.2521,0.2523,0.2525,0,0,0,0,0,0,0.2525,0.2524,0.251,0.2516,0.2515,0.2504,0.2499,0.2496,0.2496,0.2483,0.248,0.2489,0.2469,0.2468,0.2482,0.2506,0.246,0.246,0.2519,0.2521,0.2524,0.257,0,0,0,0,0,0,0.2525,0.2524,0.2525,0.2516,0.2515,0.2523,0.25,0.2497,0.2499,0.2496,0.2484,0.2482,0.2469,0.2482,0.2482,0.2505,0.246,0.2517,0.252,0.2523,0.2567,0.2574,0.2581,0,0,0,0,0,0.2526,0.2529,0.2525,0.2524,0.2515,0.2524,0.2523,0.2512,0.25,0.2508,0.2502,0.2482,0.2503,0.2484,0.2483,0.2506,0.2515,0.2519,0.2523,0.2563,0.2573,0.258,0,0,0,0,0,0,0.2534,0.2527,0.2522,0.2522,0.2528,0.252,0.2526,0.2518,0.2519,0.2517,0.2499,0.2497,0.2524,0.2512,0.2491,0.2537,0.2508,0.2512,0.2539,0.2548,0.2555,0.2586,0.246,0,0,0,0,0,0.2537,0.2537,0.2536,0.2538,0.2542,0.2536,0.2538,0.2533,0.2532,0.2531,0.2524,0.2525,0.254,0.2539,0.255,0.2566,0.2598,0.2584,0.2591,0.2597,0.2624,0.2695,0.2711,0.2537,0.2537,0.2537,0,0,0.2539,0.2538,0.2536,0.254,0.2541,0.2552,0.2535,0.2544,0.2555,0.2531,0.2545,0.2552,0.2554,0.258,0.259,0.2568,0.2664,0.2602,0.2607,0.2631,0.2701,0.2718,0.2733,0.254,0.2539,0.2539,0,0,0.2547,0.2545,0.2549,0.2559,0.2568,0.2569,0.2574,0.2575,0.258,0.2595,0.2592,0.2623,0.2618,0.2641,0.2647,0.2703,0.2706,0.2695,0.2744,0.2812,0.2827,0.2841,0.2906,0.2925,0.2688,0.2689,0.2689,0,0.2551,0.2551,0.2555,0.2567,0.2574,0.2578,0.2588,0.2601,0.2607,0.2625,0.2607,0.2661,0.2657,0.2715,0.2733,0.272,0.2756,0.2705,0.2822,0.2836,0.2849,0.2913,0.2933,0.2691,0.2691,0.2691,0.269,0,0.2561,0.2566,0.2574,0.2586,0.26,0.2611,0.263,0.265,0.2653,0.2668,0.2728,0.2743,0.2777,0.2781,0.2769,0.2862,0.2857,0.2829,0.2799,0.287,0.2932,0.2952,0.2695,0.2694,0.2693,0.2693,0,0,0.2547,0.2573,0.2574,0.258,0.2609,0.2616,0.2656,0.2691,0.2726,0.2753,0.2811,0.2852,0.2874,0.2887,0.2891,0.2948,0.3066,0.2928,0.293,0.2992,0.3223,0.3028,0.3032,0.3052,0.3056,0.3059,0.3229,0,0.2549,0.2563,0.2583,0.2602,0.2607,0.264,0.2677,0.2718,0.2755,0.2817,0.2871,0.2926,0.2909,0.2936,0.2997,0.3058,0.3122,0.3023,0.3148,0.3152,0.2969,0.3049,0.2821,0.2936,0.3249,0.3253,0.3255,0,0.2543,0.2552,0.2565,0.2601,0.261,0.2632,0.2693,0.273,0.283,0.2868,0.2952,0.2994,0.3108,0.3069,0.3233,0.3169,0.321,0.3248,0.3254,0.3074,0.2994,0.2917,0.2962,0.2862,0.3287,0.3284,0.3282,0,0.2505,0.2537,0.2542,0.2553,0.2601,0.2625,0.2659,0.2744,0.2795,0.2917,0.2984,0.3102,0.3181,0.3267,0.3333,0.3301,0.3499,0.3458,0.3331,0.3318,0.315,0.3113,0.311,0.358,0.358,0.3579,0.3579,0,0.2487,0.249,0.2524,0.2527,0.2551,0.2599,0.2653,0.2713,0.2827,0.2906,0.3013,0.3105,0.3236,0.3345,0.3391,0.342,0.3548,0.337,0.3354,0.3155,0.3119,0.3041,0.3026,0.3586,0.3584,0.3583,0.3582,0,0.244,0.2463,0.247,0.2516,0.2531,0.2548,0.2637,0.2692,0.2806,0.2924,0.2974,0.3152,0.3281,0.3382,0.353,0.3475,0.3398,0.3501,0.3248,0.3195,0.2906,0.2901,0.2795,0.2733,0.3395,0.3391,0.3388,0,0.2416,0.2413,0.2447,0.2457,0.2478,0.2516,0.2558,0.2665,0.2738,0.2937,0.3004,0.3168,0.3258,0.3391,0.3327,0.3359,0.33,0.3138,0.3011,0.2873,0.2862,0.2756,0.2707,0.2839,0.2831,0.2825,0.2821,0,0.2372,0.2383,0.2392,0.2416,0.2448,0.2485,0.2556,0.2607,0.2751,0.2857,0.3008,0.3096,0.3173,0.3072,0.3051,0.3035,0.2912,0.3006,0.2955,0.2497,0.23,0.2234,0.276,0.2766,0.2772,0.2776,0.2779,0.2781,0.2338,0.2332,0.2353,0.2367,0.2406,0.2451,0.2461,0.2554,0.2644,0.2748,0.2889,0.2911,0.2825,0.2742,0.271,0.2432,0.2534,0.2298,0.2337,0.2269,0.208,0.2458,0.2363,0.2366,0.2369,0.2371,0.2373,0,0.2287,0.2292,0.2308,0.2324,0.2343,0.239,0.2457,0.2452,0.2507,0.2565,0.2634,0.247,0.2302,0.2216,0.1931,0.1785,0.1729,0.1732,0.1586,0.1603,0.2021,0.1862,0.1539,0.1539,0.1539,0.1539,0.1539,0.1539,0.2266,0.2251,0.2255,0.2254,0.2272,0.2278,0.2295,0.2288,0.2293,0.2194,0.2062,0.202,0.1901,0.1628,0.1383,0.1353,0.1286,0.1117,0.1258,0.1582,0.164,0.1694,0.154,0.1155,0.1154,0.0699,0.0696,0.0693]},{"header":{"parameterUnit":"m.s-1","parameterCategory":2,"la1":30.2991,"la2":30.254,"lo1":-89.0895,"lo2":-89.0444,"dy":0.0017,"dx":0.0017,"nx":28,"ny":28,"refTime":"2024-04-25T09:00:00:Z","depth":"0","parameterNumber":3,"parameterNumberName":"V-component_of_CURRENTS"},"data":[0,0,0,0,0,0,0,0,0,0,0,0,0,0,0,0,0,0,0,0,0,0,0,0,0,0,0,0,0,0,0,0,0,0,0,0,0,0,0,0,0,0,0,0,0,0,0,0,0,0,0,0,0,0,0,0,0,0,0.0362,0.0362,0,0.0358,0.0357,0.0357,0.0345,0.0345,0.0345,0.0344,0.0323,0.0323,0.0323,0,0,0,0,0,0,0,0,0,0,0,0,0,0.0341,0.0342,0.0362,0.0362,0.0362,0.0358,0.0357,0.0357,0.0345,0.0345,0.0345,0.0344,0.0323,0.0323,0.0323,0,0,0,0,0,0,0,0,0,0,0,0,0,0.0345,0.0342,0.0362,0.0356,0.0355,0.0358,0.0357,0.0357,0.0345,0.0345,0.0345,0.0344,0.0324,0.0323,0.0323,0.0327,0,0,0.0321,0.0321,0,0,0,0,0,0,0,0,0.0345,0.0346,0.0357,0.0356,0.0355,0.0352,0.0342,0.0346,0.0345,0.0349,0.0344,0.0344,0.0332,0.033,0.033,0.0326,0.0325,0.0321,0.0321,0.032,0.032,0,0,0,0,0,0,0,0.0344,0.0346,0.036,0.0357,0.0356,0.0346,0.0346,0.0343,0.0342,0.0349,0.0348,0.0347,0.0331,0.0331,0.033,0.0325,0.0321,0.0321,0.032,0.032,0.0332,0.0333,0,0,0,0,0,0,0.0347,0.0346,0.036,0.036,0.0349,0.0347,0.0347,0.0353,0.0342,0.0341,0.0348,0.0347,0.0332,0.033,0.0329,0.0352,0.032,0.032,0.032,0.0332,0.0332,0.0333,0,0,0,0,0,0,0.0347,0.0349,0.0361,0.0352,0.0353,0.0348,0.0354,0.0353,0.0354,0.0342,0.034,0.035,0.0332,0.033,0.0332,0.035,0.032,0.0319,0.0331,0.0332,0.0333,0.0386,0,0,0,0,0,0,0.0346,0.0349,0.0353,0.0353,0.0354,0.0367,0.0355,0.0353,0.0355,0.0354,0.0343,0.0341,0.0331,0.0333,0.0332,0.0349,0.0319,0.033,0.0331,0.0332,0.0384,0.0389,0.0393,0,0,0,0,0,0.0345,0.0357,0.0354,0.0355,0.0361,0.0368,0.0368,0.0362,0.0355,0.036,0.0354,0.0341,0.0339,0.0333,0.0331,0.0349,0.033,0.0331,0.0332,0.0381,0.0388,0.0393,0,0,0,0,0,0,0.0349,0.0357,0.0353,0.0366,0.0367,0.0366,0.0371,0.0365,0.0365,0.0364,0.0349,0.0347,0.0356,0.0344,0.0337,0.0355,0.0332,0.0334,0.037,0.0376,0.0381,0.0402,0.0319,0,0,0,0,0,0.0353,0.0364,0.0366,0.0375,0.0379,0.0375,0.0376,0.0373,0.0372,0.0372,0.0365,0.036,0.0361,0.0361,0.0357,0.0368,0.0369,0.0377,0.0382,0.0386,0.0402,0.0413,0.042,0.0338,0.0338,0.0338,0,0,0.0356,0.0362,0.0367,0.0377,0.0378,0.0394,0.0375,0.0383,0.0398,0.037,0.0388,0.0376,0.0367,0.038,0.0383,0.0372,0.0412,0.0388,0.0392,0.0405,0.0415,0.0423,0.0431,0.0339,0.0338,0.0338,0,0,0.0374,0.0375,0.0393,0.0399,0.0406,0.0408,0.0412,0.0414,0.0417,0.0429,0.0415,0.0418,0.0414,0.0417,0.0417,0.0446,0.0436,0.044,0.0484,0.0495,0.0502,0.0508,0.053,0.0537,0.0443,0.0444,0.0444,0,0.0376,0.0402,0.0397,0.0418,0.0431,0.0418,0.0442,0.0446,0.0448,0.0461,0.0441,0.0455,0.0438,0.0469,0.0474,0.046,0.0465,0.0463,0.0502,0.0508,0.0514,0.0534,0.0542,0.0446,0.0446,0.0446,0.0445,0,0.041,0.043,0.0442,0.0467,0.0478,0.0497,0.0503,0.0514,0.0513,0.0518,0.0543,0.0524,0.0538,0.0526,0.0507,0.0543,0.0535,0.0506,0.049,0.0526,0.0545,0.0552,0.045,0.0449,0.0448,0.0448,0,0,0.0424,0.0459,0.0466,0.049,0.0509,0.0526,0.0553,0.0582,0.0615,0.0607,0.0654,0.0639,0.0631,0.0631,0.061,0.0611,0.0646,0.0578,0.0577,0.0605,0.0682,0.0642,0.0646,0.0623,0.0624,0.0625,0.0683,0,0.0455,0.0506,0.0515,0.0567,0.0596,0.0601,0.0634,0.0655,0.0669,0.0708,0.0698,0.0728,0.0672,0.0686,0.0679,0.0663,0.0667,0.0634,0.0639,0.064,0.0604,0.0654,0.0655,0.0703,0.069,0.0691,0.0692,0,0.0492,0.0524,0.0579,0.0632,0.0646,0.0674,0.0733,0.0761,0.0802,0.0816,0.0839,0.0834,0.0856,0.0792,0.0793,0.0775,0.0736,0.0709,0.071,0.0662,0.0613,0.0663,0.0717,0.0681,0.0703,0.0702,0.0701,0,0.0518,0.0573,0.0622,0.0639,0.0691,0.0722,0.0752,0.0796,0.0843,0.0895,0.0946,0.0948,0.0987,0.0933,0.0878,0.0842,0.0873,0.0815,0.0745,0.0742,0.074,0.0734,0.0765,0.0808,0.0808,0.0808,0.0808,0,0.0556,0.0597,0.064,0.0669,0.0737,0.076,0.0839,0.0867,0.0936,0.1026,0.1011,0.1096,0.1024,0.103,0.0938,0.0884,0.0924,0.0775,0.0759,0.0757,0.0753,0.0715,0.0688,0.081,0.081,0.0809,0.0809,0,0.0582,0.0608,0.0669,0.0729,0.0753,0.0803,0.0894,0.096,0.1016,0.1139,0.1169,0.1232,0.1251,0.1164,0.1107,0.0988,0.0893,0.0875,0.0883,0.0866,0.0728,0.0703,0.073,0.0719,0.081,0.0809,0.0808,0,0.0601,0.0634,0.071,0.0751,0.0782,0.0858,0.0923,0.0992,0.1076,0.1238,0.1316,0.138,0.1452,0.1354,0.1158,0.1005,0.0933,0.0874,0.0784,0.0743,0.0705,0.0695,0.0683,0.0814,0.0813,0.0813,0.0813,0,0.0636,0.066,0.071,0.0794,0.0865,0.0955,0.1055,0.1137,0.1255,0.1388,0.1572,0.1648,0.1565,0.1438,0.1198,0.1065,0.0856,0.0859,0.0827,0.0725,0.0712,0.0685,0.076,0.081,0.081,0.081,0.081,0.081,0.066,0.0699,0.0763,0.0844,0.0931,0.1052,0.1145,0.1288,0.1462,0.1678,0.174,0.1859,0.1649,0.1338,0.1177,0.0847,0.0851,0.0728,0.071,0.0711,0.0674,0.0739,0.0751,0.0751,0.0751,0.0751,0.0751,0,0.0687,0.0734,0.081,0.0914,0.1014,0.1058,0.1237,0.136,0.1595,0.1775,0.1943,0.1859,0.1636,0.1342,0.0914,0.0732,0.0675,0.0641,0.0644,0.0642,0.0716,0.0687,0.0674,0.0675,0.0675,0.0675,0.0675,0.0675,0.0703,0.077,0.081,0.0963,0.1045,0.1203,0.1314,0.1525,0.168,0.1895,0.1928,0.1932,0.1688,0.1117,0.0756,0.0668,0.0596,0.0553,0.053,0.0583,0.059,0.0597,0.0564,0.0526,0.0526,0.0479,0.0478,0.0478]}],[{"header":{"parameterUnit":"m.s-1","parameterCategory":2,"la1":30.2991,"la2":30.254,"lo1":-89.0895,"lo2":-89.0444,"dy":0.0017,"dx":0.0017,"nx":28,"ny":28,"refTime":"2024-04-25T09:00:00:Z","depth":"2","parameterNumber":2,"parameterNumberName":"U-component_of_CURRENTS"},"data":[0,0,0,0,0,0,0,0,0,0,0,0,0,0,0,0,0,0,0,0,0,0,0,0,0,0,0,0,0,0,0,0,0,0,0,0,0,0,0,0,0,0,0,0,0,0,0,0,0,0,0,0,0,0,0,0,0,0,0.2099,0.2098,0,0.2088,0.2088,0.2088,0.2081,0.2081,0.2081,0.2081,0.2082,0.2082,0.2082,0,0,0,0,0,0,0,0,0,0,0,0,0,0.2121,0.212,0.2099,0.2098,0.2098,0.2088,0.2088,0.2087,0.2081,0.2081,0.2081,0.2081,0.2082,0.2082,0.2082,0,0,0,0,0,0,0,0,0,0,0,0,0,0.211,0.212,0.2099,0.2095,0.2094,0.2088,0.2088,0.2087,0.2081,0.2081,0.2081,0.2081,0.2082,0.2082,0.2082,0.2081,0,0,0.2082,0.2082,0,0,0,0,0,0,0,0,0.2111,0.2109,0.2095,0.2095,0.2094,0.2087,0.2096,0.2086,0.2081,0.2085,0.2081,0.2081,0.2086,0.2085,0.2082,0.2081,0.2081,0.2082,0.2082,0.2082,0.2082,0,0,0,0,0,0,0,0.2111,0.211,0.2093,0.2095,0.2095,0.2096,0.2094,0.2094,0.2084,0.2084,0.2084,0.2084,0.2085,0.2082,0.2082,0.2081,0.2082,0.2082,0.2082,0.2082,0.2134,0.2135,0,0,0,0,0,0,0.2114,0.211,0.2094,0.2093,0.2104,0.2096,0.2094,0.2088,0.2084,0.2084,0.2084,0.2084,0.2082,0.2082,0.2082,0.2124,0.2082,0.2082,0.2082,0.2132,0.2134,0.2135,0,0,0,0,0,0,0.2114,0.2112,0.2094,0.2103,0.2101,0.2095,0.2089,0.2088,0.2096,0.2084,0.2084,0.2095,0.2082,0.2082,0.2095,0.2123,0.2082,0.2082,0.2131,0.2133,0.2135,0.2181,0,0,0,0,0,0,0.2115,0.2112,0.2115,0.2103,0.21,0.2104,0.2089,0.2088,0.2096,0.2096,0.2093,0.2092,0.2082,0.2096,0.2096,0.2122,0.2082,0.2129,0.2132,0.2134,0.2178,0.2185,0.219,0,0,0,0,0,0.2116,0.2117,0.2115,0.2114,0.2102,0.2105,0.2104,0.21,0.2097,0.2106,0.2104,0.2093,0.2112,0.2096,0.2096,0.2123,0.2128,0.2131,0.2134,0.2175,0.2183,0.219,0,0,0,0,0,0,0.2127,0.2116,0.2114,0.2111,0.2116,0.2104,0.2111,0.2109,0.2114,0.2116,0.2104,0.2103,0.2134,0.212,0.2103,0.2147,0.2121,0.2124,0.2153,0.216,0.2167,0.2181,0.2082,0,0,0,0,0,0.2132,0.213,0.2124,0.2125,0.2128,0.2123,0.2126,0.2125,0.2124,0.2126,0.2124,0.2128,0.2145,0.2145,0.2156,0.2168,0.2186,0.2189,0.2195,0.22,0.2213,0.2274,0.2287,0.2145,0.2145,0.2145,0,0,0.2135,0.2131,0.2129,0.2129,0.2129,0.2137,0.2125,0.2135,0.2146,0.2126,0.2144,0.2155,0.2157,0.2181,0.2192,0.217,0.2248,0.2204,0.2208,0.2219,0.2279,0.2292,0.2305,0.2147,0.2147,0.2147,0,0,0.2142,0.2141,0.2142,0.2148,0.2155,0.2156,0.2164,0.2164,0.2171,0.2188,0.2188,0.2215,0.222,0.2233,0.2239,0.2285,0.2289,0.2289,0.2318,0.2377,0.239,0.2401,0.2434,0.2447,0.2279,0.2279,0.2279,0,0.215,0.2146,0.2146,0.2153,0.2159,0.2168,0.2176,0.2188,0.2194,0.2208,0.2203,0.2249,0.225,0.229,0.2308,0.2301,0.2327,0.2287,0.2386,0.2398,0.2408,0.244,0.2454,0.2282,0.2282,0.2281,0.2281,0,0.2154,0.2159,0.2163,0.2173,0.2184,0.2195,0.2209,0.2228,0.2241,0.2253,0.2303,0.2314,0.2342,0.235,0.2342,0.2415,0.2407,0.2397,0.2367,0.2426,0.2454,0.2469,0.2286,0.2285,0.2284,0.2283,0,0,0.2147,0.2162,0.2164,0.2168,0.2194,0.2197,0.2233,0.2261,0.229,0.2317,0.2357,0.2397,0.2416,0.2426,0.2429,0.2471,0.2565,0.2467,0.2468,0.2499,0.2688,0.2542,0.2543,0.2577,0.258,0.2582,0.2675,0,0.2151,0.2159,0.2172,0.2188,0.2192,0.2219,0.2247,0.2279,0.2318,0.2364,0.24,0.2453,0.2441,0.2472,0.2513,0.2563,0.2607,0.254,0.2627,0.2629,0.2493,0.2557,0.2314,0.2364,0.2689,0.2691,0.2693,0,0.2144,0.2151,0.2162,0.2185,0.2191,0.2212,0.2263,0.2291,0.2365,0.2401,0.2465,0.2507,0.2586,0.2568,0.2681,0.2642,0.2675,0.2702,0.2706,0.2565,0.2511,0.2361,0.2378,0.2716,0.2715,0.2713,0.2711,0,0.2117,0.214,0.2147,0.2154,0.2188,0.221,0.2239,0.2306,0.2348,0.2446,0.2507,0.2586,0.265,0.2715,0.277,0.2748,0.2882,0.2855,0.2751,0.2741,0.2548,0.2514,0.2943,0.2943,0.2943,0.2943,0.2942,0,0.2101,0.2105,0.2137,0.2139,0.2158,0.2193,0.2238,0.2285,0.2379,0.2436,0.2532,0.2598,0.27,0.2779,0.2809,0.2818,0.2919,0.2773,0.2763,0.2553,0.252,0.2833,0.2819,0.2946,0.2945,0.2945,0.2944,0,0.2062,0.2083,0.209,0.2129,0.2142,0.2157,0.2235,0.2275,0.2378,0.2465,0.2514,0.2648,0.2738,0.2811,0.2915,0.2859,0.289,0.2867,0.2595,0.2549,0.27,0.2688,0.2766,0.2762,0.2758,0.2755,0.2753,0,0.204,0.2039,0.2071,0.2077,0.2098,0.2132,0.216,0.2258,0.2313,0.2476,0.2515,0.2654,0.2687,0.2768,0.2729,0.2739,0.2837,0.2498,0.2398,0.2704,0.2687,0.268,0.2672,0.2171,0.2164,0.2159,0.2154,0,0.2,0.2015,0.2023,0.2037,0.2062,0.2086,0.2143,0.2174,0.2289,0.2371,0.2459,0.2508,0.2566,0.2438,0.2438,0.2412,0.2469,0.2375,0.2807,0.223,0.2144,0.2126,0.2139,0.2103,0.2108,0.2111,0.2114,0.2116,0.1974,0.1968,0.1983,0.1987,0.2013,0.2024,0.2017,0.2072,0.2121,0.218,0.2286,0.2266,0.2263,0.2124,0.2047,0.1986,0.2165,0.2047,0.2065,0.209,0.1981,0.189,0.1781,0.1784,0.1787,0.179,0.1792,0,0.1928,0.1927,0.193,0.1921,0.1906,0.1967,0.1991,0.195,0.1936,0.1984,0.2006,0.1808,0.1692,0.1721,0.1527,0.1483,0.149,0.1423,0.1414,0.1465,0.151,0.1372,0.1012,0.101,0.1008,0.1006,0,0,0.1907,0.1882,0.1874,0.1816,0.1817,0.1798,0.1793,0.1733,0.1727,0.1624,0.1581,0.1658,0.1679,0.1352,0.1269,0.1111,0.1297,0.1063,0.1687,0.1731,0.1774,0.1861,0.1703,0,0,0,0,0]},{"header":{"parameterUnit":"m.s-1","parameterCategory":2,"la1":30.2991,"la2":30.254,"lo1":-89.0895,"lo2":-89.0444,"dy":0.0017,"dx":0.0017,"nx":28,"ny":28,"refTime":"2024-04-25T09:00:00:Z","depth":"2","parameterNumber":3,"parameterNumberName":"V-component_of_CURRENTS"},"data":[0,0,0,0,0,0,0,0,0,0,0,0,0,0,0,0,0,0,0,0,0,0,0,0,0,0,0,0,0,0,0,0,0,0,0,0,0,0,0,0,0,0,0,0,0,0,0,0,0,0,0,0,0,0,0,0,0,0,0.0174,0.0174,0,0.0168,0.0168,0.0168,0.0161,0.0161,0.0161,0.0161,0.0145,0.0145,0.0145,0,0,0,0,0,0,0,0,0,0,0,0,0,0.0162,0.0162,0.0174,0.0174,0.0174,0.0168,0.0168,0.0168,0.0161,0.0161,0.0161,0.0161,0.0145,0.0145,0.0145,0,0,0,0,0,0,0,0,0,0,0,0,0,0.0162,0.0162,0.0174,0.017,0.017,0.0168,0.0168,0.0167,0.0161,0.0161,0.0161,0.0161,0.0146,0.0145,0.0145,0.0143,0,0,0.0143,0.0143,0,0,0,0,0,0,0,0,0.0162,0.0163,0.0171,0.017,0.017,0.0165,0.0157,0.0159,0.0161,0.0164,0.0161,0.0161,0.0151,0.015,0.0149,0.0143,0.0142,0.0143,0.0143,0.0142,0.0142,0,0,0,0,0,0,0,0.0162,0.0163,0.0171,0.0171,0.017,0.0162,0.0162,0.0158,0.0158,0.0164,0.0163,0.0163,0.0151,0.015,0.0149,0.0142,0.0143,0.0142,0.0142,0.0142,0.0144,0.0144,0,0,0,0,0,0,0.0165,0.0163,0.0172,0.0171,0.0166,0.0163,0.0163,0.0167,0.0158,0.0157,0.0163,0.0163,0.0151,0.0149,0.0148,0.0165,0.0142,0.0142,0.0142,0.0143,0.0144,0.0144,0,0,0,0,0,0,0.0164,0.0166,0.0172,0.0167,0.0167,0.0163,0.0168,0.0167,0.0168,0.0158,0.0156,0.0166,0.0151,0.0149,0.015,0.0164,0.0142,0.0141,0.0143,0.0143,0.0144,0.0187,0,0,0,0,0,0,0.0164,0.0166,0.017,0.0167,0.0167,0.0176,0.0168,0.0167,0.0168,0.0168,0.016,0.0158,0.015,0.0151,0.0149,0.0163,0.0141,0.0142,0.0143,0.0144,0.0185,0.0189,0.0192,0,0,0,0,0,0.0164,0.0172,0.017,0.0171,0.0173,0.0176,0.0176,0.0172,0.0169,0.0172,0.0168,0.0159,0.0154,0.0151,0.0149,0.0162,0.0142,0.0143,0.0144,0.0184,0.0188,0.0192,0,0,0,0,0,0,0.0167,0.0172,0.017,0.0179,0.0179,0.0175,0.0179,0.0175,0.0174,0.0175,0.0163,0.0162,0.0167,0.0157,0.0154,0.0164,0.0146,0.0147,0.0177,0.0182,0.0185,0.0192,0.014,0,0,0,0,0,0.017,0.0179,0.0178,0.0185,0.0187,0.0183,0.0184,0.0182,0.018,0.018,0.0175,0.0169,0.0169,0.0169,0.0164,0.017,0.0162,0.0177,0.018,0.0184,0.0188,0.019,0.0194,0.0147,0.0147,0.0147,0,0,0.0173,0.0177,0.0181,0.0187,0.0187,0.0199,0.0184,0.0189,0.0201,0.0178,0.0192,0.0181,0.0172,0.018,0.0182,0.0175,0.0192,0.0185,0.0188,0.019,0.0191,0.0196,0.02,0.0147,0.0147,0.0147,0,0,0.0186,0.0187,0.02,0.0204,0.0208,0.021,0.0213,0.0213,0.0215,0.0223,0.0212,0.021,0.0208,0.0206,0.0205,0.0224,0.021,0.0221,0.0248,0.025,0.0254,0.0258,0.0253,0.0256,0.0225,0.0225,0.0225,0,0.0188,0.0208,0.0203,0.0218,0.0229,0.0218,0.0238,0.0239,0.0239,0.0247,0.0234,0.0234,0.0223,0.0238,0.0242,0.0234,0.0229,0.0234,0.0256,0.0259,0.0262,0.0256,0.0258,0.0227,0.0227,0.0226,0.0226,0,0.0213,0.0229,0.0238,0.0257,0.0266,0.028,0.0285,0.0292,0.0292,0.0293,0.0303,0.0284,0.0288,0.028,0.0267,0.0283,0.0271,0.026,0.0248,0.027,0.0261,0.0263,0.023,0.0229,0.0228,0.0228,0,0,0.0225,0.0251,0.0256,0.0276,0.0291,0.0304,0.0325,0.0346,0.0369,0.0356,0.0382,0.0366,0.0353,0.035,0.0331,0.0324,0.0335,0.0302,0.0301,0.0301,0.0337,0.0316,0.0316,0.0329,0.033,0.033,0.0322,0,0.025,0.0289,0.0296,0.0337,0.0361,0.0364,0.0389,0.0403,0.0412,0.0433,0.0411,0.043,0.0382,0.0391,0.0374,0.0353,0.0342,0.0338,0.0311,0.031,0.0293,0.0318,0.0332,0.0326,0.0324,0.0324,0.0325,0,0.0279,0.0304,0.0349,0.039,0.0401,0.0424,0.047,0.0489,0.0509,0.0517,0.0519,0.0508,0.0504,0.0459,0.0424,0.0425,0.0383,0.0353,0.0352,0.0319,0.0293,0.0303,0.0329,0.0327,0.0327,0.0327,0.0327,0,0.0302,0.0345,0.0386,0.04,0.0439,0.0465,0.0489,0.0518,0.0555,0.058,0.0616,0.0588,0.0601,0.0543,0.0481,0.046,0.0436,0.0403,0.034,0.0337,0.0337,0.0334,0.0372,0.0372,0.0372,0.0372,0.0372,0,0.0333,0.0366,0.0403,0.0427,0.0483,0.0498,0.0561,0.058,0.0627,0.0694,0.0667,0.0715,0.0624,0.0602,0.0517,0.0443,0.0468,0.035,0.0339,0.0352,0.035,0.0339,0.0336,0.0372,0.0372,0.0372,0.0372,0,0.0355,0.0376,0.0427,0.0476,0.0497,0.0539,0.0615,0.0665,0.0705,0.0794,0.0816,0.0822,0.0797,0.0697,0.0612,0.051,0.0431,0.0393,0.0409,0.0398,0.0315,0.0314,0.032,0.032,0.0319,0.0319,0.0318,0,0.037,0.0398,0.0463,0.0498,0.0525,0.0589,0.0642,0.0697,0.0767,0.0873,0.0928,0.0932,0.0943,0.0799,0.0636,0.0487,0.0451,0.0379,0.0332,0.0325,0.0312,0.0312,0.0311,0.0349,0.0349,0.0349,0.0349,0,0.0398,0.0421,0.0464,0.0535,0.0597,0.0675,0.0761,0.0832,0.0922,0.101,0.1116,0.1133,0.1006,0.0861,0.0642,0.0531,0.04,0.037,0.0383,0.0355,0.035,0.0338,0.0337,0.0348,0.0348,0.0348,0.0348,0.0348,0.0421,0.0454,0.0509,0.0579,0.0654,0.0763,0.0841,0.0954,0.1083,0.1216,0.1222,0.1239,0.1066,0.0786,0.0608,0.0407,0.0411,0.0314,0.0316,0.0317,0.0317,0.031,0.0301,0.0301,0.03,0.03,0.03,0,0.0447,0.0485,0.0548,0.0638,0.0723,0.0768,0.0923,0.1012,0.1179,0.127,0.134,0.1163,0.1008,0.0809,0.0524,0.0345,0.0326,0.0271,0.0293,0.0296,0.0298,0.0296,0.0275,0.0274,0.0274,0.0273,0,0,0.046,0.0517,0.0548,0.0679,0.0752,0.0892,0.099,0.1134,0.123,0.1309,0.1313,0.1283,0.106,0.0837,0.061,0.045,0.0406,0.0405,0.0446,0.0503,0.0506,0.0344,0.0348,0,0,0,0,0]}],[{"header":{"parameterUnit":"m.s-1","parameterCategory":2,"la1":30.2991,"la2":30.254,"lo1":-89.0895,"lo2":-89.0444,"dy":0.0017,"dx":0.0017,"nx":28,"ny":28,"refTime":"2024-04-25T09:00:00:Z","depth":"4","parameterNumber":2,"parameterNumberName":"U-component_of_CURRENTS"},"data":[0,0,0,0,0,0,0,0,0,0,0,0,0,0,0,0,0,0,0,0,0,0,0,0,0,0,0,0,0,0,0,0,0,0,0,0,0,0,0,0,0,0,0,0,0,0,0,0,0,0,0,0,0,0,0,0,0,0,0.1258,0.1258,0,0.1273,0.1273,0.1273,0.1305,0.1306,0.1306,0.1307,0.1338,0.1338,0.1338,0,0,0,0,0,0,0,0,0,0,0,0,0,0.1253,0.1253,0.1258,0.1258,0.1258,0.1272,0.1273,0.1273,0.1305,0.1306,0.1306,0.1307,0.1338,0.1338,0.1338,0,0,0,0,0,0,0,0,0,0,0,0,0,0.1259,0.1253,0.1257,0.1277,0.1279,0.1272,0.1273,0.1273,0.1304,0.1306,0.1307,0.1308,0.1338,0.1338,0.1338,0.1316,0,0,0.1338,0.1338,0,0,0,0,0,0,0,0,0.1259,0.1259,0.1274,0.1275,0.1277,0.1289,0.1282,0.1288,0.1304,0.1293,0.1307,0.1308,0.1323,0.1324,0.1323,0.1318,0.1319,0.1338,0.1339,0.1339,0.1339,0,0,0,0,0,0,0,0.1258,0.1259,0.1262,0.1274,0.1276,0.1283,0.1285,0.1284,0.1301,0.1294,0.1297,0.13,0.1324,0.1322,0.1324,0.132,0.1338,0.1339,0.1339,0.1339,0.1398,0.14,0,0,0,0,0,0,0.1258,0.1258,0.1262,0.1263,0.1272,0.1283,0.1285,0.1283,0.1301,0.1305,0.1299,0.1302,0.1321,0.1323,0.1325,0.1382,0.1339,0.1339,0.1339,0.1397,0.1398,0.14,0,0,0,0,0,0,0.1257,0.1258,0.1261,0.1262,0.1263,0.1282,0.1279,0.1283,0.1311,0.1304,0.1309,0.1328,0.1322,0.1325,0.1352,0.138,0.1339,0.1339,0.1395,0.1397,0.1399,0.1444,0,0,0,0,0,0,0.1257,0.1257,0.1271,0.1262,0.1263,0.1277,0.1279,0.1282,0.131,0.1314,0.133,0.1332,0.1324,0.1352,0.1352,0.138,0.1339,0.1393,0.1396,0.1399,0.1441,0.1447,0.1453,0,0,0,0,0,0.1257,0.1264,0.1271,0.1273,0.1276,0.1278,0.128,0.1296,0.1311,0.1325,0.1341,0.1333,0.137,0.1353,0.1353,0.1381,0.1392,0.1395,0.1398,0.1438,0.1446,0.1453,0,0,0,0,0,0,0.1271,0.1268,0.1276,0.1283,0.1292,0.1285,0.1303,0.1312,0.1334,0.1348,0.1344,0.1347,0.1386,0.1377,0.1358,0.1409,0.1383,0.1386,0.1413,0.142,0.1427,0.1432,0.1339,0,0,0,0,0,0.1279,0.1286,0.1284,0.1296,0.1301,0.1308,0.1318,0.1328,0.1338,0.1351,0.1362,0.1378,0.1393,0.1403,0.1414,0.1432,0.1435,0.1454,0.1461,0.1466,0.1472,0.1508,0.1518,0.1411,0.1411,0.1411,0,0,0.1289,0.1289,0.1295,0.13,0.1309,0.1318,0.1318,0.1339,0.1357,0.1349,0.139,0.1403,0.1405,0.1434,0.145,0.1433,0.1498,0.147,0.1474,0.1478,0.1512,0.1522,0.1532,0.1413,0.1413,0.1412,0,0,0.1299,0.1312,0.132,0.1328,0.1345,0.1346,0.136,0.1371,0.1393,0.1421,0.143,0.146,0.1478,0.1487,0.1491,0.1538,0.1534,0.155,0.158,0.1614,0.1623,0.1631,0.1643,0.1652,0.1548,0.1548,0.1548,0,0.1317,0.1319,0.1325,0.1334,0.1346,0.1363,0.1376,0.1393,0.1418,0.1436,0.1446,0.1493,0.1501,0.153,0.1555,0.1552,0.1567,0.1547,0.1622,0.163,0.1637,0.1648,0.1657,0.155,0.155,0.155,0.155,0,0.132,0.1337,0.1344,0.1359,0.1374,0.1391,0.1409,0.1439,0.1468,0.1483,0.1535,0.1549,0.1575,0.1589,0.1588,0.1645,0.1637,0.1629,0.16,0.1651,0.1659,0.1667,0.1554,0.1553,0.1552,0.1552,0,0,0.1317,0.1341,0.1348,0.1359,0.1391,0.1396,0.1439,0.1468,0.1494,0.1537,0.1574,0.1616,0.1634,0.1643,0.1651,0.1684,0.1751,0.1688,0.1688,0.1695,0.1824,0.169,0.1686,0.1764,0.1766,0.1767,0.1806,0,0.1322,0.1339,0.1354,0.1381,0.1389,0.1422,0.1452,0.1488,0.1524,0.1565,0.1602,0.1645,0.1651,0.1676,0.1713,0.1744,0.1777,0.174,0.1778,0.1779,0.165,0.1693,0.1773,0.1812,0.1814,0.1816,0.1817,0,0.1312,0.1327,0.1353,0.1383,0.1392,0.1418,0.1467,0.1498,0.1559,0.1591,0.1642,0.1672,0.1734,0.1735,0.1811,0.1792,0.182,0.1838,0.184,0.1705,0.1661,0.1754,0.1832,0.1831,0.1829,0.1828,0.1828,0,0.1286,0.1321,0.1343,0.1356,0.1396,0.1427,0.1459,0.1514,0.1543,0.1622,0.1653,0.1718,0.1767,0.1814,0.1862,0.1851,0.1938,0.1916,0.1817,0.1807,0.1896,0.1887,0.1977,0.1977,0.1977,0.1977,0.1977,0,0.1263,0.1282,0.1338,0.1347,0.1378,0.142,0.1459,0.1503,0.1566,0.1593,0.1674,0.1703,0.18,0.1853,0.188,0.1869,0.1953,0.1827,0.1812,0.1912,0.1905,0.1901,0.1892,0.1978,0.1978,0.1978,0.1978,0,0.122,0.1259,0.1285,0.1343,0.1365,0.1392,0.1455,0.147,0.1552,0.1595,0.1629,0.1724,0.1789,0.1856,0.1934,0.1879,0.1889,0.1869,0.1972,0.1962,0.1728,0.1721,0.1741,0.1737,0.1733,0.173,0.1727,0,0.1194,0.1206,0.1277,0.1291,0.1323,0.1367,0.1385,0.146,0.1479,0.1583,0.1594,0.1697,0.1747,0.1745,0.1826,0.185,0.1839,0.1815,0.1768,0.1722,0.1706,0.1705,0.1702,0.1721,0.1721,0.172,0.1719,0,0.1145,0.1188,0.1211,0.1242,0.127,0.1275,0.1319,0.132,0.1398,0.1496,0.1518,0.1546,0.1615,0.1664,0.1706,0.172,0.1806,0.1777,0.1784,0.1739,0.1699,0.1686,0.1688,0.1706,0.1708,0.1709,0.171,0,0.1118,0.1124,0.1162,0.1174,0.1195,0.116,0.1194,0.1209,0.1239,0.1364,0.1373,0.1483,0.1596,0.1598,0.1631,0.1637,0.1606,0.1535,0.1554,0.1569,0.1494,0.1417,0.1328,0,0,0,0,0,0.1082,0.1071,0.1079,0.1071,0.108,0.109,0.1128,0.1163,0.1255,0.1233,0.1296,0.1351,0.139,0.1453,0.1426,0.1549,0.161,0.1507,0.1537,0.1636,0.165,0.1578,0,0,0,0,0,0,0.1053,0.1069,0.1054,0.0972,0.0947,0.0935,0.0951,0.1014,0.1011,0.1128,0.1171,0.1261,0.1341,0.1407,0.1405,0.1421,0.1405,0.1586,0.1582,0.1627,0.1641,0.1653,0.1583,0,0,0,0,0]},{"header":{"parameterUnit":"m.s-1","parameterCategory":2,"la1":30.2991,"la2":30.254,"lo1":-89.0895,"lo2":-89.0444,"dy":0.0017,"dx":0.0017,"nx":28,"ny":28,"refTime":"2024-04-25T09:00:00:Z","depth":"4","parameterNumber":3,"parameterNumberName":"V-component_of_CURRENTS"},"data":[0,0,0,0,0,0,0,0,0,0,0,0,0,0,0,0,0,0,0,0,0,0,0,0,0,0,0,0,0,0,0,0,0,0,0,0,0,0,0,0,0,0,0,0,0,0,0,0,0,0,0,0,0,0,0,0,0,0,0.0117,0.0117,0,0.0116,0.0116,0.0116,0.0117,0.0117,0.0117,0.0117,0.0113,0.0113,0.0113,0,0,0,0,0,0,0,0,0,0,0,0,0,0.0105,0.0106,0.0117,0.0117,0.0117,0.0116,0.0116,0.0116,0.0117,0.0117,0.0117,0.0117,0.0113,0.0113,0.0113,0,0,0,0,0,0,0,0,0,0,0,0,0,0.0108,0.0106,0.0117,0.0117,0.0117,0.0116,0.0116,0.0116,0.0117,0.0117,0.0117,0.0117,0.0113,0.0113,0.0113,0.0111,0,0,0.0112,0.0112,0,0,0,0,0,0,0,0,0.0108,0.0109,0.0117,0.0117,0.0117,0.0117,0.0111,0.0114,0.0117,0.0117,0.0117,0.0117,0.0114,0.0114,0.0114,0.0111,0.0111,0.0112,0.0112,0.0112,0.0112,0,0,0,0,0,0,0,0.0108,0.0109,0.0117,0.0117,0.0117,0.0113,0.0113,0.0112,0.0115,0.0117,0.0117,0.0117,0.0114,0.0114,0.0114,0.0111,0.0112,0.0112,0.0112,0.0112,0.0115,0.0115,0,0,0,0,0,0,0.0109,0.0109,0.0117,0.0117,0.0113,0.0113,0.0113,0.0117,0.0115,0.0115,0.0117,0.0117,0.0114,0.0114,0.0113,0.0127,0.0112,0.0112,0.0112,0.0115,0.0115,0.0115,0,0,0,0,0,0,0.0109,0.011,0.0117,0.0112,0.0113,0.0113,0.0117,0.0117,0.012,0.0115,0.0115,0.012,0.0114,0.0114,0.0117,0.0126,0.0112,0.0112,0.0115,0.0115,0.0115,0.0143,0,0,0,0,0,0,0.0108,0.011,0.0113,0.0113,0.0113,0.012,0.0117,0.0117,0.012,0.012,0.0118,0.0118,0.0114,0.0117,0.0117,0.0125,0.0112,0.0114,0.0115,0.0115,0.0142,0.0144,0.0146,0,0,0,0,0,0.0108,0.0114,0.0114,0.0115,0.0118,0.012,0.012,0.012,0.012,0.0123,0.0123,0.0118,0.0119,0.0118,0.0117,0.0126,0.0114,0.0115,0.0115,0.0141,0.0144,0.0146,0,0,0,0,0,0,0.011,0.0114,0.0114,0.0121,0.0122,0.012,0.0124,0.0123,0.0125,0.0126,0.0121,0.0121,0.0126,0.0121,0.0119,0.0126,0.0115,0.0116,0.0135,0.0138,0.014,0.0144,0.0112,0,0,0,0,0,0.0112,0.0119,0.0119,0.0125,0.0127,0.0126,0.0127,0.0127,0.0128,0.0129,0.0128,0.0126,0.0126,0.0129,0.0125,0.0132,0.0119,0.0136,0.0138,0.014,0.0142,0.0135,0.0137,0.0116,0.0116,0.0116,0,0,0.0113,0.0117,0.0121,0.0126,0.0127,0.0136,0.0127,0.0131,0.014,0.0128,0.014,0.0133,0.0128,0.0135,0.0137,0.0133,0.0136,0.014,0.0142,0.0144,0.0135,0.0137,0.0139,0.0117,0.0117,0.0117,0,0,0.0122,0.0125,0.0134,0.0137,0.0142,0.0143,0.0146,0.0147,0.015,0.0158,0.0151,0.0151,0.0152,0.0151,0.0151,0.0163,0.0146,0.0161,0.0179,0.0172,0.0174,0.0175,0.0152,0.0152,0.0164,0.0165,0.0165,0,0.0124,0.0137,0.0136,0.0146,0.0155,0.0149,0.0163,0.0165,0.0167,0.0175,0.0166,0.0168,0.0161,0.0172,0.0174,0.0169,0.0156,0.0171,0.0175,0.0176,0.0177,0.0154,0.0153,0.0166,0.0166,0.0166,0.0165,0,0.014,0.0152,0.0158,0.0173,0.018,0.019,0.0195,0.0201,0.0203,0.0206,0.0213,0.0201,0.0204,0.0199,0.019,0.0196,0.018,0.0177,0.017,0.0181,0.0155,0.0154,0.0168,0.0167,0.0167,0.0167,0,0,0.0145,0.0166,0.017,0.0185,0.0198,0.0208,0.0224,0.024,0.0258,0.0249,0.0269,0.0257,0.0248,0.0246,0.0233,0.0222,0.021,0.0203,0.0202,0.0183,0.0182,0.0174,0.0171,0.0209,0.0209,0.0209,0.0158,0,0.0161,0.0189,0.0196,0.0227,0.0244,0.0249,0.0269,0.0282,0.0289,0.0304,0.0289,0.0301,0.0268,0.0273,0.0255,0.0225,0.0208,0.0223,0.0172,0.017,0.0164,0.017,0.0209,0.0156,0.0156,0.0156,0.0155,0,0.0178,0.0197,0.023,0.0264,0.0273,0.0292,0.0328,0.0345,0.036,0.0367,0.0367,0.0355,0.034,0.0313,0.0258,0.0269,0.0228,0.0196,0.0194,0.0177,0.016,0.0144,0.0152,0.0152,0.0152,0.0153,0.0153,0,0.0191,0.0224,0.0255,0.0266,0.0299,0.0321,0.0342,0.0366,0.0396,0.0411,0.0432,0.0403,0.0401,0.0343,0.0273,0.0269,0.0207,0.0196,0.0146,0.0144,0.0153,0.0152,0.0158,0.0158,0.0158,0.0158,0.0159,0,0.0207,0.0233,0.0265,0.0283,0.0328,0.0345,0.0396,0.0412,0.0448,0.0491,0.0468,0.0484,0.0409,0.0366,0.029,0.0211,0.022,0.0148,0.0135,0.0164,0.0165,0.0151,0.015,0.0156,0.0157,0.0157,0.0158,0,0.0217,0.0236,0.0274,0.0316,0.0336,0.037,0.0436,0.0476,0.0502,0.0557,0.0568,0.0549,0.0491,0.0406,0.0312,0.0243,0.0163,0.0133,0.0162,0.0152,0.0096,0.0097,0.007,0.007,0.0069,0.0069,0.0069,0,0.0223,0.0243,0.0299,0.0328,0.0351,0.0406,0.0453,0.05,0.0549,0.0595,0.0626,0.0591,0.0563,0.0421,0.0321,0.0178,0.0156,0.0106,0.0103,0.0099,0.0089,0.0091,0.0094,0.0068,0.0068,0.0067,0.0067,0,0.0234,0.0255,0.0288,0.0348,0.0402,0.0467,0.0537,0.0577,0.0639,0.0661,0.0676,0.0612,0.0547,0.0426,0.0319,0.0214,0.0133,0.01,0.01,0.0097,0.0096,0.0086,0.0089,0.0066,0.0066,0.0066,0.0066,0,0.0245,0.0268,0.0314,0.037,0.0437,0.0514,0.0549,0.0611,0.0661,0.0712,0.0708,0.0639,0.0598,0.0445,0.0344,0.0243,0.0212,0.0166,0.0162,0.0163,0.0203,0.0216,0.0214,0,0,0,0,0,0.0255,0.0283,0.0332,0.04,0.0468,0.0515,0.0603,0.0638,0.0696,0.0713,0.0716,0.0655,0.0516,0.0454,0.0353,0.0323,0.0187,0.0198,0.0131,0.0056,0.0058,0.0089,0,0,0,0,0,0,0.026,0.0305,0.033,0.0418,0.0469,0.0559,0.0619,0.066,0.0671,0.0702,0.063,0.061,0.0473,0.057,0.0342,0.0314,0.0252,0.0139,0.0136,0.0055,0.0057,0.0058,0.0091,0,0,0,0,0]}]]